Probability
19 19 18 17 14 12 10 7 4 3 3 3 4 3 2 0 0 0 0 0 0 0 0 0 0 0 0 0 0 0 0 0 0 0 0 0 0 0 0 0 0 0 0
19 20 20 18 16 14 12 9 6 4 3 3 4 4 2 1 1 0 0 0 0 0 0 0 0 0 0 0 0 0 0 0 0 0 0 0 0 0 0 0 0 0 0
20 20 21 20 19 17 15 11 8 6 4 3 3 3 2 2 2 1 1 0 0 0 0 0 0 0 0 0 0 0 0 0 0 0 0 0 0 0 0 0 0 0 0
17 18 20 22 22 20 17 14 10 7 5 3 3 3 2 2 2 2 2 1 0 0 0 0 0 0 0 0 0 0 0 0 0 0 0 0 0 0 0 0 0 0 0
16 18 20 23 23 21 19 15 12 8 6 4 3 3 3 3 2 1 1 1 0 0 0 0 0 0 0 0 0 0 0 0 0 0 0 0 0 0 0 0 0 0 0
16 17 19 22 23 21 20 18 14 10 8 6 4 3 3 3 2 1 1 0 0 0 0 0 0 0 0 0 0 0 0 0 0 0 0 0 0 0 0 0 0 0 0
17 16 17 19 20 20 19 19 16 12 9 7 5 4 3 3 3 2 1 0 0 0 0 0 0 0 0 0 0 0 0 0 0 0 0 0 0 0 0 0 0 0 0
17 16 16 18 19 19 19 19 17 14 11 8 5 3 3 3 3 2 1 0 0 1 1 1 1 1 1 0 0 0 0 0 0 0 0 0 1 1 1 0 0 0 0
14 15 14 15 16 17 17 17 16 14 11 8 4 3 3 3 3 2 1 0 0 1 2 2 2 2 2 1 0 0 0 0 0 0 0 0 1 1 1 0 0 0 0
12 11 10 10 11 12 12 13 12 11 10 7 5 3 3 3 3 2 1 0 0 0 1 1 2 3 3 2 0 0 0 0 0 0 0 0 0 0 0 0 0 0 0
11 9 8 7 7 7 6 7 8 9 9 7 5 4 3 3 3 2 1 1 1 0 0 0 1 2 2 1 0 0 0 0 0 0 0 0 0 0 0 0 0 0 0
10 9 7 7 6 6 5 4 5 7 8 7 6 4 3 3 3 3 2 2 2 1 0 0 0 1 1 0 0 0 0 0 0 0 0 0 0 0 0 0 0 0 0
7 7 7 6 6 6 5 4 4 5 7 8 7 6 5 4 4 3 3 3 2 1 0 0 0 0 0 0 0 0 0 0 0 0 0 0 0 0 0 0 0 0 0
5 5 5 5 5 5 4 4 4 4 6 7 7 6 6 7 6 4 3 3 3 1 0 0 0 0 0 1 1 0 0 0 0 0 0 0 0 0 0 0 0 0 1
3 3 2 3 3 4 3 4 4 4 5 5 5 6 7 7 6 4 3 3 3 2 1 0 0 0 0 1 1 0 0 0 0 0 0 0 0 0 0 0 0 1 2
1 1 0 1 3 3 3 3 4 4 3 3 4 5 5 5 4 3 2 2 3 3 2 1 0 0 0 1 1 0 0 0 0 0 0 0 0 0 0 0 0 1 2
0 0 0 1 2 3 3 3 4 4 3 2 2 3 3 2 1 1 1 1 2 3 3 1 0 0 0 0 0 0 0 0 0 0 0 0 0 0 0 0 0 0 1
0 0 0 0 1 1 2 3 3 4 3 2 2 2 1 1 0 0 0 1 2 3 3 2 1 0 0 0 0 0 0 0 0 0 0 0 0 0 0 0 0 0 1
0 0 0 0 0 0 1 1 2 2 2 1 1 1 1 0 0 0 0 1 2 3 2 2 1 0 0 0 0 0 0 0 0 0 0 0 0 0 0 0 0 0 1
0 0 0 0 0 0 0 0 1 1 1 0 0 0 0 0 0 0 0 1 1 1 1 1 0 0 0 0 0 0 0 0 0 0 0 0 0 0 0 0 1 1 0
0 0 0 0 0 0 0 0 0 0 0 0 0 0 0 0 0 0 0 0 0 0 1 1 1 1 0 0 0 0 0 0 0 0 0 0 0 1 1 1 1 1 1
0 0 0 0 0 0 0 0 0 0 0 0 0 0 0 0 0 0 0 0 0 0 1 2 2 2 1 0 0 0 0 0 0 0 0 0 1 2 3 2 1 1 0
0 0 0 0 0 0 0 0 0 0 0 0 0 0 0 0 0 0 1 1 1 0 0 1 2 3 2 1 0 0 0 0 0 0 0 0 1 2 3 3 1 1 1
0 0 0 0 0 0 0 0 0 0 0 0 0 0 0 0 0 0 1 2 1 0 0 0 1 2 2 1 0 0 0 0 0 0 0 0 0 1 2 3 3 2 3
0 0 0 0 0 0 0 0 0 0 0 0 0 0 0 0 0 0 0 1 1 0 0 0 0 1 2 1 0 0 0 0 0 0 0 0 0 0 1 3 4 4 4
0 0 0 0 0 0 0 0 0 0 0 0 0 0 0 0 0 0 0 0 0 0 0 0 0 0 1 1 0 0 0 0 0 0 0 0 0 0 1 2 4 4 4
Wind_Speed
6 8 9 9 9 9 9 9 9 9 8 8 7 7 6 6 6 5 5 5 5 5 6 6 6 6 7 8 8 8 8 8 9 9 9 8 8 8 8 7 6 6 9
7 9 10 9 9 9 9 9 9 8 7 7 7 6 6 6 5 4 4 4 4 4 5 5 5 5 6 7 7 7 7 7 6 6 5 5 6 7 8 9 8 6 8
8 9 9 8 9 8 8 8 8 7 7 6 6 6 6 5 5 4 3 3 3 3 4 4 4 5 5 6 6 6 5 4 2 1 1 2 4 7 7 7 7 8 8
9 9 8 9 9 8 8 7 7 7 6 6 5 5 5 5 4 4 3 3 3 3 3 3 4 4 5 5 5 4 2 1 1 3 2 2 4 7 6 6 6 6 6
9 9 9 10 9 9 8 7 7 6 5 5 5 4 4 4 4 3 3 3 3 3 3 2 3 3 4 4 3 2 1 2 4 5 1 2 4 7 6 5 5 5 5
8 9 9 10 10 9 8 7 6 6 5 5 4 4 3 3 3 3 4 3 3 3 2 2 2 2 3 3 3 2 3 4 5 3 1 2 3 6 6 5 4 3 3
7 7 8 10 10 9 8 7 7 6 5 4 4 3 2 2 2 3 3 3 2 2 1 1 1 2 3 3 4 4 4 5 4 3 1 2 4 7 5 4 3 2 2
7 6 7 9 9 8 8 7 6 5 4 4 3 2 1 1 2 2 2 2 1 1 1 1 1 2 3 3 4 5 5 6 5 4 1 2 6 7 5 4 3 3 2
7 6 5 5 6 7 7 7 6 5 4 3 2 1 0 1 1 1 1 0 1 1 1 2 2 3 3 4 4 5 5 6 5 4 3 2 7 7 6 5 5 4 4
7 6 5 5 4 4 3 5 4 3 2 2 1 1 1 1 3 3 2 2 2 2 3 3 3 4 4 5 5 5 6 6 5 5 3 3 8 8 7 7 7 6 6
7 6 5 5 4 4 2 3 2 2 1 1 0 1 1 1 2 2 3 3 3 3 4 4 5 5 5 6 7 7 6 4 5 4 3 5 9 9 8 8 8 8 8
6 6 6 5 5 4 3 2 1 1 1 1 1 1 1 1 1 1 2 4 4 5 5 6 6 6 5 4 5 7 4 5 5 4 3 7 9 9 9 9 10 10 9
6 6 5 5 5 4 3 2 2 1 1 2 3 3 2 2 1 1 0 1 2 3 3 4 4 4 4 3 3 4 5 5 3 3 3 8 9 10 10 10 11 11 11
6 6 5 5 4 4 4 2 2 2 1 2 2 3 2 2 2 2 1 1 1 1 2 2 2 4 5 5 4 5 5 4 3 3 4 8 9 10 11 12 12 13 13
6 5 5 5 5 4 3 3 3 2 2 2 2 3 3 2 2 2 2 2 2 2 2 2 3 4 4 4 4 5 5 5 5 4 3 8 9 10 12 13 14 14 14
5 5 4 5 5 4 4 3 3 2 2 2 2 2 3 2 2 2 2 2 2 2 2 2 3 3 3 3 4 4 5 5 4 4 4 6 10 11 12 13 14 15 15
4 4 4 4 4 4 4 4 3 2 2 2 2 3 3 3 3 3 2 2 2 2 3 3 3 3 3 4 4 5 4 5 5 5 4 4 5 10 12 13 15 15 16
4 4 4 5 4 4 4 3 3 3 3 2 3 3 4 4 4 3 3 3 3 2 2 3 2 3 3 3 4 4 4 4 5 5 4 4 3 4 8 13 14 15 16
3 3 3 4 4 4 3 3 2 3 3 3 3 3 4 5 5 4 3 3 4 3 2 3 3 2 3 4 4 4 4 4 4 5 5 5 4 4 4 8 12 13 14
3 3 3 3 4 4 3 2 2 3 3 3 3 4 5 4 5 4 3 4 4 3 3 3 4 3 3 4 5 5 5 5 4 4 5 4 3 4 3 4 4 6 11
3 2 3 3 3 3 3 3 2 3 3 3 3 4 5 5 5 4 4 4 4 3 4 4 3 4 3 3 3 4 5 5 4 3 3 3 3 3 2 2 2 2 3
3 2 2 2 2 3 2 2 1 1 1 1 2 3 4 5 5 4 4 4 4 4 4 4 4 3 3 3 2 3 4 4 3 3 2 2 2 2 2 3 2 2 2
4 3 1 1 1 2 2 2 2 2 2 2 2 2 3 4 4 4 4 4 4 3 3 4 4 3 3 3 2 1 2 3 4 3 3 3 3 2 3 3 3 3 3
4 3 2 1 1 1 1 1 2 1 2 2 2 2 2 3 4 4 4 4 4 3 4 4 4 3 3 3 3 2 2 3 3 4 3 2 4 4 3 3 3 3 2
5 3 2 1 1 1 0 1 1 1 1 2 2 2 2 2 3 4 4 4 4 3 4 4 4 4 3 3 3 3 3 3 3 4 5 4 3 2 3 3 3 3 3
4 4 2 2 1 1 1 1 0 1 2 2 3 2 2 2 2 4 4 4 4 4 4 4 4 4 3 3 3 2 2 2 3 3 4 5 4 3 3 2 2 3 3
Wind_Direction
106 115 113 113 112 109 109 109 106 102 100 102 103 103 105 106 105 101 96 92 89 86 85 86 88 85 84 84 84 82 81 79 80 79 75 73 75 74 70 65 70 73 79
113 114 112 112 113 108 106 106 102 100 100 100 100 98 96 96 102 106 103 100 99 97 89 93 97 95 92 91 91 91 90 91 90 92 95 85 78 75 72 66 63 82 85
102 107 109 106 108 105 105 108 106 104 101 97 95 94 91 89 91 96 98 102 110 111 96 95 99 101 98 99 97 97 96 102 100 113 164 137 108 92 86 79 75 83 84
96 100 101 96 100 102 103 107 108 107 106 100 94 89 87 84 81 86 89 87 101 116 109 104 104 106 109 108 108 108 107 122 291 288 249 160 120 109 102 94 86 84 84
93 94 92 90 90 95 97 99 106 106 107 103 97 90 86 82 79 74 79 85 83 92 104 115 121 129 132 129 129 136 188 277 296 292 300 86 102 121 113 104 94 89 86
89 93 93 88 86 87 89 90 98 102 104 102 98 92 87 82 79 69 65 71 80 88 105 115 131 162 167 165 174 200 246 278 296 278 241 131 119 130 127 122 111 107 106
81 90 99 91 86 87 86 84 85 92 95 97 98 100 103 92 84 79 68 67 76 94 114 150 167 181 187 196 210 230 254 275 275 275 267 130 132 142 145 147 146 137 143
81 88 101 94 92 92 92 85 82 83 87 90 89 88 107 106 98 92 75 72 88 131 185 206 229 222 221 226 234 243 256 269 277 278 234 150 149 158 168 175 182 186 186
69 71 74 86 94 92 93 90 85 83 79 76 69 53 52 148 161 158 118 172 242 246 240 233 237 233 235 243 247 250 256 263 274 273 252 174 164 174 187 198 206 212 217
67 61 57 57 57 67 85 91 88 87 83 80 57 11 318 240 225 216 205 231 247 258 253 242 241 241 244 244 244 248 252 263 253 256 247 189 177 187 200 210 217 221 225
66 56 52 51 43 36 39 63 80 100 74 54 275 293 268 246 232 216 214 217 235 251 253 245 244 246 245 242 240 242 246 247 246 242 226 190 187 198 209 216 223 228 230
63 53 44 40 32 26 25 38 20 43 53 4 4 359 301 303 298 297 224 217 236 247 253 248 249 249 244 240 238 234 239 243 245 242 209 191 198 209 219 224 228 233 235
69 55 42 36 32 23 14 20 12 8 25 10 13 357 334 331 334 345 310 220 243 249 252 253 243 243 242 239 233 222 233 241 238 240 213 201 207 216 224 230 233 236 240
70 58 44 36 34 25 19 10 10 11 20 19 8 357 352 348 344 338 324 314 280 267 267 265 250 248 246 244 243 239 237 237 240 235 215 208 214 224 230 235 239 240 243
72 59 45 38 33 23 17 7 20 2 7 9 10 356 2 353 338 335 327 326 314 312 300 284 278 277 272 260 251 250 249 245 244 235 219 211 214 223 233 240 243 245 245
67 58 42 38 30 23 21 12 10 358 354 2 0 354 2 352 335 333 321 318 316 316 308 301 295 295 289 287 280 272 264 258 254 248 233 215 217 222 231 241 247 249 250
63 54 40 40 30 22 18 5 4 354 357 0 355 358 4 359 345 339 330 323 315 321 323 315 305 304 300 297 290 283 274 266 262 254 246 227 217 223 228 239 247 250 252
73 58 38 31 26 23 14 354 347 357 2 360 4 9 6 2 354 343 337 326 327 331 327 315 304 305 302 300 296 289 285 281 275 269 260 247 229 221 226 234 242 248 253
74 67 53 36 25 16 359 341 350 2 8 5 8 11 8 4 357 346 339 337 340 339 327 320 319 309 300 300 292 283 279 275 273 275 271 263 251 240 229 231 234 242 248
91 75 65 44 30 9 356 351 6 20 12 12 12 9 4 1 358 351 343 342 341 337 333 332 321 318 305 302 300 294 281 272 268 263 265 269 268 260 253 252 236 240 246
111 86 67 44 32 23 11 4 6 12 357 4 8 14 5 359 356 353 352 349 346 339 331 330 325 321 316 318 312 304 286 268 262 263 267 272 285 290 299 290 277 266 254
125 104 82 52 32 29 20 357 334 324 321 340 357 1 359 356 352 352 354 348 342 337 339 339 337 323 316 334 321 312 311 307 310 295 293 287 293 303 298 291 280 273 278
134 115 89 72 46 29 8 346 334 335 332 355 355 354 354 353 354 352 351 349 340 340 335 333 329 326 314 310 313 300 305 297 319 298 302 304 308 307 298 288 282 284 280
139 131 132 113 79 46 5 340 335 345 340 331 325 328 349 355 353 351 352 348 342 339 338 331 336 319 313 308 308 294 278 294 295 305 305 314 317 317 316 318 310 307 308
134 138 150 157 145 115 7 332 332 332 317 311 322 337 346 348 356 357 357 350 346 340 339 335 331 323 312 302 302 306 299 298 283 281 293 305 312 315 318 317 321 328 332
141 148 167 181 181 168 200 261 297 302 309 317 323 330 330 337 350 358 353 348 343 339 337 332 326 323 321 316 313 310 303 297 301 292 290 302 296 295 308 313 325 338 346